GW2967 Weather Reports


time (UTC)temp
C
wind
direction
speed
KPH
gust
KPH
rain 1hr
cm
rain 24hr
cm
rain mn
cm
humidity
%
barometer
mb
20260901224539 21 0 0.0 1.6 1.47 1.52 1.52 66 1014.6
20260901223039 23 238 0.0 14.5 0.99 1.02 1.02 59 1015.3
20260901221602 26 114 0.0 1.6 0.00 0.03 0.03 63 1014.3
20260901220038 27 0 0.0 0.0 0.00 0.03 0.03 62 1014.2
20260901214538 27 0 0.0 0.0 0.00 0.03 0.03 59 1014.1
20260901213057 29 0 0.0 0.0 0.00 0.03 0.03 57 1013.8
20260901211542 30 0 0.0 1.6 0.00 0.03 0.03 52 1013.9
20260901210038 31 0 0.0 3.2 0.00 0.03 0.03 48 1013.9
20260901204539 32 165 0.0 1.6 0.00 0.03 0.03 48 1013.7
20260901203043 32 0 0.0 3.2 0.00 0.03 0.03 46 1014.0
20260901201537 32 0 0.0 4.8 0.00 0.03 0.03 43 1014.1
20260901200049 31 158 0.0 6.4 0.00 0.03 0.03 46 1014.1
20260901194537 31 123 0.0 9.7 0.00 0.13 0.03 45 1014.2
20260901193048 30 0 0.0 4.8 0.00 0.13 0.03 46 1014.3
20260901191539 29 0 0.0 1.6 0.00 0.13 0.03 49 1014.5
20260901190035 30 0 0.0 1.6 0.00 0.13 0.03 47 1014.6
20260901184541 30 0 0.0 1.6 0.00 0.13 0.03 47 1014.7
20260901183040 29 0 0.0 1.6 0.00 0.13 0.03 50 1014.9
20260901181539 29 112 0.0 1.6 0.00 0.13 0.03 50 1015.0
20260901180035 30 0 0.0 1.6 0.00 0.13 0.03 49 1014.8
20260901174537 29 0 0.0 3.2 0.00 0.13 0.03 49 1014.7
20260901173039 29 201 0.0 3.2 0.00 0.13 0.03 48 1014.8
20260901171537 28 0 0.0 4.8 0.00 0.13 0.03 52 1015.0
20260901170040 29 205 0.0 3.2 0.00 0.13 0.03 52 1015.1
20260901164535 28 203 1.6 3.2 0.00 0.13 0.03 49 1015.2
20260901163039 27 0 0.0 1.6 0.00 0.13 0.03 53 1015.6
20260901161540 26 242 0.0 3.2 0.00 0.13 0.03 56 1015.7
20260901160037 26 212 0.0 1.6 0.00 0.13 0.03 56 1015.8
20260901154534 25 0 0.0 1.6 0.00 0.13 0.03 58 1016.0
20260901153036 24 143 0.0 1.6 0.00 0.13 0.03 60 1016.1
20260901151536 23 0 0.0 0.0 0.00 0.13 0.03 60 1016.1
20260901150039 23 0 0.0 0.0 0.00 0.13 0.03 61 1016.2
20260901144538 23 0 0.0 0.0 0.00 0.13 0.03 60 1016.0
20260901143039 23 0 0.0 0.0 0.00 0.13 0.03 61 1016.2
20260901141542 23 0 0.0 0.0 0.00 0.13 0.03 61 1016.2
20260901140037 22 0 0.0 0.0 0.00 0.13 0.03 62 1016.4
20260901134537 22 0 0.0 0.0 0.00 0.13 0.03 63 1016.2
20260901133041 21 0 0.0 0.0 0.00 0.13 0.03 64 1016.2
20260901131537 21 0 0.0 1.6 0.00 0.13 0.03 66 1016.1
20260901130038 21 0 0.0 0.0 0.00 0.13 0.03 66 1016.3
20260901124538 20 0 0.0 0.0 0.00 0.13 0.03 66 1016.5
20260901123037 20 0 0.0 1.6 0.00 0.13 0.03 66 1016.4
20260901121540 19 0 0.0 0.0 0.00 0.13 0.03 67 1016.5
20260901120044 19 0 0.0 0.0 0.00 0.13 0.03 67 1016.7
20260901114542 18 0 0.0 0.0 0.00 0.13 0.03 67 1016.4
20260901113037 18 0 0.0 0.0 0.00 0.13 0.03 67 1016.4
20260901111537 18 0 0.0 0.0 0.00 0.13 0.03 67 1016.4
20260901110040 18 0 0.0 0.0 0.00 0.13 0.03 67 1016.0
20260901104535 18 0 0.0 0.0 0.00 0.13 0.03 67 1016.6
20260901103041 18 0 0.0 0.0 0.00 0.13 0.03 67 1016.5
20260901101534 18 0 0.0 0.0 0.00 0.13 0.03 67 1016.7
20260901100038 18 0 0.0 0.0 0.00 0.13 0.03 67 1016.7
20260901094537 18 0 0.0 0.0 0.00 0.13 0.03 67 1016.8
20260901093036 18 0 0.0 0.0 0.00 0.13 0.03 67 1016.8
20260901091536 18 0 0.0 0.0 0.00 0.13 0.03 66 1016.8
20260901090034 18 0 0.0 0.0 0.00 0.13 0.03 67 1016.6
20260901084539 18 0 0.0 0.0 0.00 0.13 0.03 67 1016.8
20260901083038 18 0 0.0 0.0 0.00 0.13 0.03 66 1017.0
20260901081544 18 0 0.0 0.0 0.00 0.13 0.03 66 1017.1
20260901080036 18 0 0.0 0.0 0.00 0.13 0.03 66 1017.0
20260901074539 18 0 0.0 0.0 0.00 0.13 0.03 66 1017.1
20260901073037 18 0 0.0 0.0 0.03 0.13 0.03 66 1017.1
20260901071553 18 0 0.0 0.0 0.03 0.13 0.03 66 1017.1
20260901070038 18 0 0.0 0.0 0.03 0.13 0.03 66 1017.3
20260901064541 18 0 0.0 0.0 0.03 0.13 0.03 66 1017.4
20260901063036 18 0 0.0 0.0 0.00 0.10 0.00 66 1017.4
20260901061537 18 0 0.0 0.0 0.00 0.10 0.00 66 1017.6
20260901060037 18 0 0.0 0.0 0.00 0.10 0.00 66 1017.6
20260901054538 18 0 0.0 0.0 0.00 0.10 0.00 66 1017.6
20260901053038 18 0 0.0 0.0 0.00 0.10 0.00 66 1017.7
20260901051536 18 0 0.0 0.0 0.00 0.10 0.00 66 1017.8
20260901050039 18 0 0.0 0.0 0.00 0.10 0.00 66 1018.0
20260901044544 18 0 0.0 0.0 0.00 0.10 0.00 66 1018.0
20260901043041 18 0 0.0 0.0 0.00 0.10 0.00 66 1018.2
20260901041537 19 0 0.0 0.0 0.00 0.10 0.00 66 1018.1
20260901040041 19 0 0.0 0.0 0.00 0.10 0.00 66 1018.0
20260901034540 19 0 0.0 0.0 0.00 0.10 0.10 66 1018.1
20260901033038 19 0 0.0 0.0 0.00 0.10 0.10 66 1018.2
20260901031536 19 0 0.0 0.0 0.00 0.10 0.10 66 1018.5
20260901030036 19 0 0.0 0.0 0.00 0.10 0.10 66 1018.6
20260901024538 19 0 0.0 0.0 0.00 0.10 0.10 66 1018.8
20260901023043 19 0 0.0 0.0 0.00 0.10 0.10 66 1019.1
20260901021538 19 0 0.0 0.0 0.00 0.10 0.10 66 1018.9
20260901020036 19 0 0.0 0.0 0.00 0.10 0.10 65 1018.9
20260901014538 19 0 0.0 0.0 0.00 0.10 0.10 65 1018.9
20260901013038 19 0 0.0 0.0 0.00 0.10 0.10 65 1018.9
20260901011538 19 0 0.0 0.0 0.00 0.10 0.10 65 1018.8
20260901010035 18 0 0.0 0.0 0.00 0.10 0.10 64 1018.6
20260901004549 18 0 0.0 0.0 0.00 0.10 0.10 64 1018.7
20260901003037 19 0 0.0 0.0 0.00 0.10 0.10 64 1018.6
20260901001536 19 0 0.0 0.0 0.00 0.10 0.10 64 1018.5
20260901000036 20 0 0.0 0.0 0.00 0.10 0.10 64 1018.6
20260831234537 20 0 0.0 4.8 0.00 0.10 0.10 64 1018.5
20260831233037 21 0 0.0 0.0 0.00 0.10 0.10 64 1018.4